| time (UTC) | temp F | wind direction | speed MPH | gust MPH | rain 1hr in | rain 24hr in | rain mn in | humidity % | barometer mb |
| 20260903104516 | 81 | 158 | 1.0 | 3.0 | 0.00 | 0.00 | 0.00 | 69 | 1012.5 |
| 20260903103536 | 81 | 158 | 1.0 | 5.0 | 0.00 | 0.00 | 0.00 | 69 | 1012.4 |
| 20260903102517 | 80 | 158 | 2.0 | 6.0 | 0.00 | 0.00 | 0.00 | 70 | 1012.3 |
| 20260903101537 | 80 | 158 | 2.0 | 5.0 | 0.00 | 0.00 | 0.00 | 71 | 1012.3 |
| 20260903100516 | 80 | 158 | 2.0 | 4.0 | 0.00 | 0.00 | 0.00 | 71 | 1012.1 |
| 20260903095517 | 80 | 135 | 2.0 | 5.0 | 0.00 | 0.00 | 0.00 | 71 | 1012.1 |
| 20260903094516 | 80 | 158 | 3.0 | 7.0 | 0.00 | 0.00 | 0.00 | 71 | 1012.1 |
| 20260903093516 | 80 | 158 | 2.0 | 5.0 | 0.00 | 0.00 | 0.00 | 71 | 1012.3 |
| 20260903092517 | 80 | 158 | 2.0 | 3.0 | 0.00 | 0.00 | 0.00 | 71 | 1012.2 |
| 20260903091516 | 80 | 158 | 2.0 | 5.0 | 0.00 | 0.00 | 0.00 | 71 | 1012.3 |
| 20260903090517 | 80 | 158 | 3.0 | 5.0 | 0.00 | 0.00 | 0.00 | 71 | 1012.4 |
| 20260903085516 | 80 | 158 | 2.0 | 5.0 | 0.00 | 0.00 | 0.00 | 70 | 1012.3 |
| 20260903084517 | 80 | 158 | 2.0 | 6.0 | 0.00 | 0.00 | 0.00 | 71 | 1012.4 |
| 20260903083516 | 80 | 158 | 3.0 | 6.0 | 0.00 | 0.00 | 0.00 | 71 | 1012.3 |
| 20260903082536 | 80 | 158 | 3.0 | 6.0 | 0.00 | 0.00 | 0.00 | 72 | 1012.3 |
| 20260903081516 | 80 | 158 | 3.0 | 6.0 | 0.00 | 0.00 | 0.00 | 70 | 1012.2 |
| 20260903080516 | 80 | 158 | 2.0 | 5.0 | 0.00 | 0.00 | 0.00 | 71 | 1012.3 |
| 20260903075516 | 80 | 158 | 2.0 | 5.0 | 0.00 | 0.00 | 0.00 | 71 | 1012.2 |
| 20260903074516 | 81 | 180 | 2.0 | 5.0 | 0.00 | 0.00 | 0.00 | 70 | 1012.2 |
| 20260903073516 | 81 | 158 | 3.0 | 7.0 | 0.00 | 0.00 | 0.00 | 70 | 1012.2 |
| 20260903072517 | 81 | 158 | 3.0 | 6.0 | 0.00 | 0.00 | 0.00 | 69 | 1012.2 |
| 20260903071557 | 82 | 203 | 2.0 | 6.0 | 0.00 | 0.00 | 0.00 | 68 | 1012.2 |
| 20260903070516 | 82 | 180 | 3.0 | 9.0 | 0.00 | 0.00 | 0.00 | 67 | 1012.3 |
| 20260903065516 | 83 | 180 | 3.0 | 7.0 | 0.00 | 0.00 | 0.00 | 66 | 1012.3 |
| 20260903064516 | 83 | 158 | 3.0 | 8.0 | 0.00 | 0.00 | 0.00 | 65 | 1012.4 |
| 20260903063516 | 83 | 158 | 3.0 | 9.0 | 0.00 | 0.00 | 0.00 | 65 | 1012.4 |
| 20260903062516 | 83 | 158 | 3.0 | 8.0 | 0.00 | 0.00 | 0.00 | 64 | 1012.3 |
| 20260903061516 | 84 | 158 | 4.0 | 10.0 | 0.00 | 0.00 | 0.00 | 64 | 1012.3 |
| 20260903060537 | 84 | 158 | 4.0 | 10.0 | 0.00 | 0.00 | 0.00 | 64 | 1012.4 |
| 20260903055516 | 84 | 158 | 3.0 | 8.0 | 0.00 | 0.00 | 0.00 | 64 | 1012.4 |
| 20260903054536 | 84 | 158 | 4.0 | 10.0 | 0.00 | 0.00 | 0.00 | 64 | 1012.4 |
| 20260903053516 | 84 | 158 | 3.0 | 8.0 | 0.00 | 0.00 | 0.00 | 64 | 1012.4 |
| 20260903052516 | 84 | 158 | 3.0 | 7.0 | 0.00 | 0.00 | 0.00 | 64 | 1012.2 |
| 20260903051516 | 84 | 158 | 4.0 | 8.0 | 0.00 | 0.00 | 0.00 | 64 | 1012.2 |
| 20260903050516 | 84 | 180 | 3.0 | 7.0 | 0.00 | 0.00 | 0.00 | 64 | 1012.3 |
| 20260903045517 | 84 | 158 | 4.0 | 8.0 | 0.00 | 0.00 | 0.00 | 63 | 1012.3 |
| 20260903044517 | 85 | 158 | 3.0 | 8.0 | 0.00 | 0.00 | 0.00 | 63 | 1012.3 |
| 20260903043517 | 85 | 158 | 5.0 | 9.0 | 0.00 | 0.00 | 0.00 | 62 | 1012.3 |
| 20260903042516 | 85 | 158 | 5.0 | 10.0 | 0.00 | 0.00 | 0.00 | 62 | 1012.0 |
| 20260903041537 | 85 | 158 | 4.0 | 9.0 | 0.00 | 0.00 | 0.00 | 62 | 1012.1 |
| 20260903040517 | 85 | 158 | 4.0 | 8.0 | 0.00 | 0.00 | 0.00 | 62 | 1012.1 |
| 20260903035517 | 85 | 158 | 4.0 | 7.0 | 0.00 | 0.00 | 0.00 | 62 | 1012.0 |
| 20260903034516 | 86 | 158 | 3.0 | 10.0 | 0.00 | 0.00 | 0.00 | 61 | 1011.9 |
| 20260903033517 | 86 | 158 | 4.0 | 9.0 | 0.00 | 0.00 | 0.00 | 61 | 1012.0 |
| 20260903032516 | 86 | 158 | 3.0 | 7.0 | 0.00 | 0.00 | 0.00 | 61 | 1012.0 |
| 20260903031517 | 87 | 158 | 4.0 | 9.0 | 0.00 | 0.00 | 0.00 | 60 | 1011.9 |
| 20260903030516 | 87 | 158 | 4.0 | 8.0 | 0.00 | 0.00 | 0.00 | 59 | 1011.9 |
| 20260903025516 | 88 | 158 | 3.0 | 7.0 | 0.00 | 0.00 | 0.00 | 58 | 1011.9 |
| 20260903024516 | 88 | 158 | 4.0 | 11.0 | 0.00 | 0.00 | 0.00 | 57 | 1011.8 |
| 20260903023516 | 88 | 158 | 3.0 | 6.0 | 0.00 | 0.00 | 0.00 | 56 | 1011.7 |
| 20260903022516 | 89 | 158 | 4.0 | 10.0 | 0.00 | 0.00 | 0.00 | 56 | 1011.6 |
| 20260903021516 | 89 | 158 | 3.0 | 7.0 | 0.00 | 0.00 | 0.00 | 56 | 1011.5 |
| 20260903020516 | 88 | 158 | 3.0 | 6.0 | 0.00 | 0.00 | 0.00 | 57 | 1011.5 |
| 20260903015516 | 89 | 158 | 2.0 | 5.0 | 0.00 | 0.00 | 0.00 | 57 | 1011.3 |
| 20260903014536 | 89 | 158 | 2.0 | 6.0 | 0.00 | 0.00 | 0.00 | 56 | 1011.3 |
| 20260903013516 | 89 | 158 | 2.0 | 6.0 | 0.00 | 0.00 | 0.00 | 56 | 1011.3 |
| 20260903012657 | 90 | 158 | 3.0 | 5.0 | 0.00 | 0.00 | 0.00 | 56 | 1011.0 |
| 20260903011516 | 90 | 158 | 2.0 | 4.0 | 0.00 | 0.00 | 0.00 | 56 | 1010.9 |
| 20260903010516 | 91 | 158 | 2.0 | 5.0 | 0.00 | 0.00 | 0.00 | 56 | 1011.1 |
| 20260903005536 | 91 | 158 | 2.0 | 4.0 | 0.00 | 0.00 | 0.00 | 56 | 1011.0 |
| 20260903004536 | 92 | 158 | 2.0 | 4.0 | 0.00 | 0.00 | 0.00 | 55 | 1011.1 |
| 20260903003516 | 92 | 158 | 1.0 | 4.0 | 0.00 | 0.00 | 0.00 | 55 | 1011.2 |
| 20260903002516 | 93 | 158 | 2.0 | 5.0 | 0.00 | 0.00 | 0.00 | 54 | 1011.2 |
| 20260903001536 | 94 | 158 | 2.0 | 4.0 | 0.00 | 0.00 | 0.00 | 53 | 1011.2 |
| 20260903000516 | 95 | 180 | 2.0 | 5.0 | 0.00 | 0.00 | 0.00 | 52 | 1011.1 |
| 20260902235536 | 95 | 158 | 2.0 | 7.0 | 0.00 | 0.00 | 0.00 | 51 | 1011.3 |
| 20260902234516 | 95 | 158 | 2.0 | 8.0 | 0.00 | 0.00 | 0.00 | 51 | 1011.4 |
| 20260902233516 | 96 | 158 | 2.0 | 7.0 | 0.00 | 0.00 | 0.00 | 50 | 1011.4 |
| 20260902232516 | 96 | 158 | 2.0 | 8.0 | 0.00 | 0.00 | 0.00 | 48 | 1011.4 |
| 20260902231516 | 96 | 158 | 2.0 | 5.0 | 0.00 | 0.00 | 0.00 | 49 | 1011.4 |
| 20260902230516 | 96 | 158 | 3.0 | 7.0 | 0.00 | 0.00 | 0.00 | 49 | 1011.4 |
| 20260902225516 | 97 | 158 | 2.0 | 7.0 | 0.00 | 0.00 | 0.00 | 49 | 1011.5 |
| 20260902224516 | 97 | 203 | 3.0 | 6.0 | 0.00 | 0.00 | 0.00 | 47 | 1011.5 |
| 20260902223516 | 97 | 203 | 3.0 | 7.0 | 0.00 | 0.00 | 0.00 | 48 | 1011.5 |
| 20260902222516 | 97 | 203 | 3.0 | 7.0 | 0.00 | 0.00 | 0.00 | 46 | 1011.5 |
| 20260902221536 | 97 | 203 | 4.0 | 8.0 | 0.00 | 0.00 | 0.00 | 46 | 1011.5 |
| 20260902220516 | 97 | 203 | 5.0 | 11.0 | 0.00 | 0.00 | 0.00 | 46 | 1011.6 |
| 20260902215516 | 97 | 203 | 4.0 | 11.0 | 0.00 | 0.00 | 0.00 | 47 | 1011.8 |
| 20260902214516 | 97 | 203 | 4.0 | 7.0 | 0.00 | 0.00 | 0.00 | 48 | 1011.8 |
| 20260902213516 | 97 | 203 | 4.0 | 10.0 | 0.00 | 0.00 | 0.00 | 47 | 1011.9 |
| 20260902212516 | 97 | 158 | 4.0 | 12.0 | 0.00 | 0.00 | 0.00 | 47 | 1011.8 |
| 20260902211516 | 97 | 203 | 3.0 | 5.0 | 0.00 | 0.00 | 0.00 | 48 | 1012.0 |
| 20260902210516 | 96 | 203 | 4.0 | 7.0 | 0.00 | 0.00 | 0.00 | 49 | 1012.0 |
| 20260902205516 | 97 | 158 | 6.0 | 14.0 | 0.00 | 0.00 | 0.00 | 47 | 1012.0 |
| 20260902204516 | 97 | 203 | 4.0 | 10.0 | 0.00 | 0.00 | 0.00 | 47 | 1012.1 |
| 20260902203516 | 97 | 203 | 4.0 | 10.0 | 0.00 | 0.00 | 0.00 | 47 | 1012.1 |
| 20260902202516 | 96 | 203 | 4.0 | 10.0 | 0.00 | 0.00 | 0.00 | 49 | 1012.3 |
| 20260902201516 | 96 | 203 | 4.0 | 13.0 | 0.00 | 0.00 | 0.00 | 49 | 1012.3 |
| 20260902200536 | 96 | 203 | 4.0 | 7.0 | 0.00 | 0.00 | 0.00 | 48 | 1012.4 |
| 20260902195516 | 96 | 203 | 4.0 | 14.0 | 0.00 | 0.00 | 0.00 | 47 | 1012.5 |
| 20260902194556 | 95 | 203 | 4.0 | 8.0 | 0.00 | 0.00 | 0.00 | 50 | 1012.6 |
| 20260902193536 | 94 | 203 | 4.0 | 7.0 | 0.00 | 0.00 | 0.00 | 49 | 1012.6 |
| 20260902192516 | 94 | 158 | 3.0 | 7.0 | 0.00 | 0.00 | 0.00 | 50 | 1012.6 |
| 20260902191516 | 94 | 158 | 5.0 | 9.0 | 0.00 | 0.00 | 0.00 | 48 | 1012.7 |
| 20260902190516 | 94 | 158 | 4.0 | 12.0 | 0.00 | 0.00 | 0.00 | 49 | 1012.8 |
| 20260902185536 | 94 | 203 | 5.0 | 9.0 | 0.00 | 0.00 | 0.00 | 48 | 1012.8 |
| 20260902184516 | 95 | 203 | 5.0 | 10.0 | 0.00 | 0.00 | 0.00 | 48 | 1013.0 |
| 20260902183515 | 94 | 158 | 5.0 | 11.0 | 0.00 | 0.00 | 0.00 | 48 | 1013.1 |
| 20260902182515 | 94 | 180 | 4.0 | 12.0 | 0.00 | 0.00 | 0.00 | 50 | 1013.4 |
| 20260902181515 | 94 | 158 | 5.0 | 10.0 | 0.00 | 0.00 | 0.00 | 50 | 1013.4 |
| 20260902180516 | 94 | 225 | 4.0 | 11.0 | 0.00 | 0.00 | 0.00 | 49 | 1013.6 |
| 20260902175515 | 94 | 180 | 4.0 | 10.0 | 0.00 | 0.00 | 0.00 | 51 | 1013.6 |
| 20260902174515 | 93 | 203 | 4.0 | 11.0 | 0.00 | 0.00 | 0.00 | 51 | 1013.7 |
| 20260902173536 | 93 | 203 | 4.0 | 12.0 | 0.00 | 0.00 | 0.00 | 51 | 1013.8 |
| 20260902172515 | 92 | 203 | 4.0 | 9.0 | 0.00 | 0.00 | 0.00 | 51 | 1013.8 |
| 20260902171515 | 92 | 203 | 4.0 | 8.0 | 0.00 | 0.00 | 0.00 | 54 | 1013.9 |
| 20260902170556 | 91 | 203 | 4.0 | 8.0 | 0.00 | 0.00 | 0.00 | 54 | 1014.0 |
| 20260902165536 | 91 | 203 | 4.0 | 11.0 | 0.00 | 0.00 | 0.00 | 55 | 1013.9 |
| 20260902164515 | 90 | 203 | 5.0 | 8.0 | 0.00 | 0.00 | 0.00 | 55 | 1013.9 |
| 20260902163516 | 89 | 158 | 5.0 | 10.0 | 0.00 | 0.00 | 0.00 | 54 | 1013.8 |
| 20260902162515 | 89 | 203 | 4.0 | 10.0 | 0.00 | 0.00 | 0.00 | 57 | 1013.9 |
| 20260902161515 | 87 | 203 | 5.0 | 10.0 | 0.00 | 0.00 | 0.00 | 57 | 1013.9 |
| 20260902160515 | 86 | 158 | 3.0 | 7.0 | 0.00 | 0.00 | 0.00 | 66 | 1013.9 |
| 20260902155515 | 84 | 203 | 2.0 | 4.0 | 0.00 | 0.00 | 0.00 | 67 | 1013.9 |
| 20260902154515 | 83 | 180 | 2.0 | 7.0 | 0.00 | 0.00 | 0.00 | 68 | 1013.9 |
| 20260902153517 | 83 | 158 | 2.0 | 4.0 | 0.00 | 0.00 | 0.00 | 67 | 1013.9 |
| 20260902152517 | 83 | 158 | 3.0 | 9.0 | 0.00 | 0.00 | 0.00 | 67 | 1014.0 |
| 20260902151517 | 82 | 180 | 2.0 | 5.0 | 0.00 | 0.00 | 0.00 | 70 | 1014.0 |
| 20260902150517 | 82 | 135 | 2.0 | 6.0 | 0.00 | 0.00 | 0.00 | 70 | 1014.0 |
| 20260902145517 | 82 | 135 | 2.0 | 4.0 | 0.00 | 0.00 | 0.00 | 68 | 1014.0 |
| 20260902144517 | 80 | 158 | 3.0 | 6.0 | 0.00 | 0.00 | 0.00 | 69 | 1013.8 |
| 20260902143517 | 78 | 158 | 1.0 | 4.0 | 0.00 | 0.00 | 0.00 | 77 | 1013.8 |
| 20260902142517 | 78 | 135 | 1.0 | 3.0 | 0.00 | 0.00 | 0.00 | 77 | 1014.0 |
| 20260902141517 | 78 | 0.0 | 1.0 | 0.00 | 0.00 | 0.00 | 77 | 1014.1 | |
| 20260902140517 | 78 | 135 | 1.0 | 2.0 | 0.00 | 0.00 | 0.00 | 75 | 1014.2 |
| 20260902135517 | 79 | 135 | 1.0 | 2.0 | 0.00 | 0.00 | 0.00 | 72 | 1014.1 |
| 20260902134517 | 80 | 113 | 1.0 | 2.0 | 0.00 | 0.00 | 0.00 | 71 | 1014.3 |
| 20260902133538 | 80 | 0.0 | 2.0 | 0.00 | 0.00 | 0.00 | 72 | 1014.4 | |
| 20260902132517 | 78 | 0.0 | 2.0 | 0.00 | 0.00 | 0.00 | 74 | 1014.7 | |
| 20260902131517 | 76 | 0.0 | 1.0 | 0.00 | 0.00 | 0.00 | 76 | 1014.6 | |
| 20260902130517 | 75 | 0.0 | 1.0 | 0.00 | 0.00 | 0.00 | 77 | 1014.2 | |
| 20260902125517 | 75 | 158 | 1.0 | 2.0 | 0.00 | 0.00 | 0.00 | 78 | 1014.3 |
| 20260902124517 | 74 | 0.0 | 1.0 | 0.00 | 0.00 | 0.00 | 77 | 1014.3 | |
| 20260902123517 | 74 | 0.0 | 1.0 | 0.00 | 0.00 | 0.00 | 78 | 1014.2 | |
| 20260902122517 | 73 | 0.0 | 2.0 | 0.00 | 0.00 | 0.00 | 79 | 1014.2 | |
| 20260902121517 | 73 | 0.0 | 1.0 | 0.00 | 0.00 | 0.00 | 79 | 1014.0 | |
| 20260902120517 | 73 | 0.0 | 1.0 | 0.00 | 0.00 | 0.00 | 79 | 1014.0 | |
| 20260902115517 | 74 | 0.0 | 1.0 | 0.00 | 0.00 | 0.00 | 79 | 1013.9 | |
| 20260902114517 | 74 | 0.0 | 1.0 | 0.00 | 0.00 | 0.00 | 78 | 1013.9 | |
| 20260902113517 | 74 | 113 | 1.0 | 3.0 | 0.00 | 0.00 | 0.00 | 78 | 1014.0 |
| 20260902112517 | 75 | 113 | 1.0 | 2.0 | 0.00 | 0.00 | 0.00 | 75 | 1014.0 |
| 20260902111537 | 76 | 0.0 | 0.0 | 0.00 | 0.00 | 0.00 | 73 | 1013.9 | |
| 20260902110517 | 77 | 0.0 | 2.0 | 0.00 | 0.00 | 0.00 | 71 | 1013.8 | |
| 20260902105537 | 78 | 135 | 1.0 | 3.0 | 0.00 | 0.00 | 0.00 | 68 | 1013.8 |